ニート彗星

166P/NEAT (2002)

English version
Home page
Updated on March 17, 2010

---------------------------------------------------------------------

・ プロフィール

符号 166P/2001 T4
発見日 2001年10月15日
発見光度 20.3等
発見者 Near-Earth-Asteroid Tracking Team (Jet Propulsion Laboratory)

・ 軌道要素

Epoch 2002 May 6.0 TT = JDT 2452400.5
T 2002 May 20.36281 TT                                  MPC
q   8.5642451            (2000.0)            P               Q
n   0.01899415     Peri.  321.84039     +0.87623594     -0.41836796
a  13.9119978      Node    64.50151     +0.48094095     +0.72825562
e   0.3843986      Incl.   15.36253     +0.03010619     +0.54278172
P  51.89

・ 星図

・ 光度変化

        m1 = 5.5 + 5 logΔ + 10.0 log r

---------------------------------------------------------------------

軌道要素はM.P.E.C. 2002-S06に掲載されたものです。
星図は StellaNavigator Ver.2.0 for Windows (アストロアーツ 編著 / アスキー出版局刊) で作成したものです。
光度グラフはComet for Windowsで作成したものです。

---------------------------------------------------------------------

Copyright(C) Seiichi Yoshida (comet@aerith.net). All rights reserved.